Location: Fouquenies
(49.4624°N, 2.0492°E)
Time: 18:22:39
(UTC+00:00)

Tiangong - Visible Passes

Search period start: 08 June 2023 00:00
Search period end: 18 June 2023 00:00
Orbit: 386 x 390 km, 41.5° (Epoch: 08 June)

Date Brightness Start Highest point End Pass type
(mag) Time Alt. Az. Time Alt. Az. Time Alt. Az.
08 Jun -0.5 02:07:32 18° S 02:08:05 18° S 02:10:23 10° SE visible
09 Jun 0.4 01:11:33 11° SE 01:11:33 11° SE 01:11:44 10° SE visible
09 Jun -0.5 02:43:48 11° SW 02:45:58 19° S 02:48:21 10° SE visible
10 Jun -0.5 01:47:53 19° S 01:47:53 19° S 01:49:55 10° SE visible
11 Jun -0.5 02:24:22 15° SSW 02:25:18 17° S 02:27:30 10° SSE visible
12 Jun 0.3 01:28:51 11° SE 01:28:51 11° SE 01:29:08 10° SE visible
12 Jun 0.0 03:02:08 10° SW 03:02:57 11° SSW 03:03:45 10° S visible
13 Jun 0.3 02:06:07 10° SSE 02:06:07 10° SSE 02:06:11 10° SSE visible
15 Jun 0.1 21:30:36 10° SSW 21:31:05 12° S 21:31:05 12° S visible
16 Jun 0.0 22:07:23 10° SW 22:08:09 14° SSW 22:08:09 14° SSW visible
17 Jun -0.4 21:08:48 10° SSW 21:10:56 17° S 21:12:22 13° SE visible
